Flag for Norway Weather past 2 weeks in Finse, Norway

Now
28 °F

Chilly.


Feels Like: 21 °F
Forecast: 22 / 33 °F
Wind: 7 mph from West

Location: Finsevatn

Current Time: Apr 22, 2015 at 4:29:11 AM

Latest Report: Apr 22, 2015 at 3:00 AM


Visibility: N/A

Pressure: 30.42 "Hg

Humidity: 85%

Dew point: 24 °F

Location of FinseLocation

Historic Weather in Finse — Graph

°F

Finse temperature yesterday

Maximum temperature yesterday: 38 °F (at 10:00 AM)
Minimum temperature yesterday: 28 °F (at 11:00 PM)
Average temperature yesterday: 32 °F

Past Weeks' High & Low Weather Summary

 TemperatureHumidityPressure
High45 °F (Apr 19, 2:00 PM)97% (Apr 9, 6:00 PM)30.67 "Hg (Apr 9, 6:00 PM)
Low3 °F (Apr 18, 1:00 AM)40% (Apr 20, 2:00 PM)29.50 "Hg (Apr 15, 1:00 PM)
Average28 °F81%30.10 "Hg
* Reported Apr 7 3:00 AM — Apr 22 3:00 AM, Finse, Weather by CustomWeather, © 2015

Note: Actual official high and low records may vary slightly from our data, if they occured in-between our weather recording intervals... More about our weather records

Advertising

Finse weather history for previous 24 hours

 ConditionsComfort  
Time TempWeatherWind HumidityBarometerVisibility
3:00 AM
Wed, Apr 22
28 °FChilly.7 mph85%30.42 "HgN/A
2:00 AM29 °FChilly.10 mph81%30.41 "HgN/A
1:00 AM27 °FChilly.9 mph93%30.45 "HgN/A
12:00 AM28 °FChilly.8 mph90%30.43 "HgN/A
11:00 PM
Tue, Apr 21
28 °FChilly.6 mph90%30.43 "HgN/A
10:00 PM29 °FChilly.10 mph92%30.43 "HgN/A
9:00 PM29 °FChilly.7 mph88%30.39 "HgN/A
8:00 PM31 °FChilly.3 mph85%30.36 "HgN/A
7:00 PM30 °FChilly.10 mph92%30.40 "HgN/A
6:00 PM31 °FChilly.10 mph92%30.35 "HgN/A
5:00 PM31 °FChilly.8 mph88%30.34 "HgN/A
4:00 PM31 °FChilly.8 mph92%30.36 "HgN/A
3:00 PM31 °FChilly.10 mph93%30.37 "HgN/A
2:00 PM31 °FChilly.9 mph93%30.35 "HgN/A
1:00 PM33 °FChilly.8 mph81%30.31 "HgN/A
12:00 PM38 °FChilly.5 mph66%30.28 "HgN/A
11:00 AM38 °FChilly.7 mph67%30.29 "HgN/A
10:00 AM38 °FChilly.7 mph66%30.29 "HgN/A
9:00 AM36 °FChilly.2 mph52%30.32 "HgN/A
8:00 AM31 °FChilly.6 mph71%30.37 "HgN/A
6:00 AM29 °FChilly.6 mph72%30.40 "HgN/A
5:00 AM31 °FChilly.6 mph73%30.40 "HgN/A
4:00 AM31 °FChilly.1 mph66%30.41 "HgN/A
Weather by CustomWeather, © 2015

See weather overviewHow to use our weather pages